RH
99 99 99 100 100 100 100 100 99 95 93 88 93 88 82 78 81 80 77 72 73 75 78 85 90 92 87 89 71 64 55 40 16 13 19 79 93 92
97 98 98 100 100 100 100 100 100 100 98 95 94 92 87 83 86 88 83 78 78 81 85 90 98 97 90 90 66 60 41 14 11 12 22 90 95 92
94 94 95 97 99 100 100 99 99 100 100 98 99 98 97 91 89 92 90 89 89 89 91 93 98 90 90 82 61 46 17 9 10 14 16 85 96 94
77 89 86 86 90 96 99 100 100 100 100 100 100 100 99 99 98 96 95 98 97 94 96 97 89 88 91 68 52 23 10 8 13 15 19 42 95 94
81 82 76 84 91 90 92 97 100 100 97 98 98 100 99 98 99 100 100 100 100 100 100 97 93 91 87 56 29 12 7 11 16 21 24 28 92 96
78 72 66 63 71 86 97 100 95 95 100 98 100 100 100 98 100 100 93 100 99 100 100 96 98 93 62 40 18 7 10 17 20 23 27 89 96 93
83 80 73 65 67 74 95 96 98 100 99 100 100 100 100 100 95 97 96 100 99 100 100 100 94 76 47 23 10 8 16 18 20 26 69 97 95 93
85 79 77 72 62 65 86 82 97 98 100 97 100 98 99 88 79 100 100 100 100 99 100 98 87 55 25 15 10 15 19 21 22 25 38 96 93 95
91 90 83 97 96 86 74 79 88 93 96 99 100 100 100 94 75 95 99 100 92 99 97 93 55 28 17 16 16 21 24 26 23 23 18 87 95 96
84 94 96 98 99 100 93 74 90 93 96 96 93 100 99 99 86 97 94 100 99 100 92 54 34 24 22 19 20 23 31 37 24 15 14 18 67 96
98 100 100 95 83 90 100 97 76 96 99 92 97 95 95 100 100 100 100 100 100 98 67 46 23 24 25 21 25 17 18 20 20 18 21 50 71 83
35 32 57 73 82 87 99 100 85 87 100 99 100 100 98 100 100 100 98 100 100 83 65 45 30 36 24 21 18 16 17 18 22 23 46 64 88 83
28 32 43 69 78 83 88 91 89 88 99 100 100 90 96 100 100 100 100 100 91 81 56 43 43 24 24 22 18 20 18 21 21 21 23 31 44 79
20 30 62 85 80 82 88 87 97 99 99 100 100 100 100 99 100 100 99 95 85 60 42 47 29 22 27 21 19 18 18 19 19 21 30 43 53 68
21 35 80 97 98 94 94 98 99 100 100 100 100 100 100 100 99 99 98 68 52 84 62 30 20 29 26 20 18 15 13 13 21 33 40 50 61 65
35 58 100 100 100 100 99 98 100 100 100 100 100 100 100 100 100 91 76 98 95 89 47 22 28 29 22 20 17 11 15 24 29 32 42 56 62 67
93 99 100 96 92 97 98 100 100 100 100 100 100 100 100 99 97 94 99 98 97 55 24 28 30 26 23 16 12 17 30 34 36 51 60 64 66 68
96 99 100 100 99 99 99 100 100 100 100 100 99 99 99 98 100 99 98 98 50 24 28 29 26 21 15 13 24 31 37 45 53 60 66 73 71 68
100 99 100 100 99 99 99 99 99 99 99 99 98 98 98 97 98 98 98 58 26 30 31 31 25 18 18 17 23 35 44 54 67 74 80 83 81 76
100 100 100 100 98 98 98 98 99 98 98 98 98 97 97 97 97 98 74 26 28 32 28 22 19 22 20 24 31 44 54 72 88 97 91 89 87 78
100 100 100 100 98 98 98 98 98 98 98 98 97 98 98 97 98 73 28 28 33 27 20 19 20 17 22 36 47 64 72 90 96 98 98 99 92 84
100 100 100 100 97 98 97 97 98 97 97 97 98 99 98 98 82 30 27 30 25 19 20 16 17 30 40 60 74 83 85 82 90 96 97 100 99 99
99 100 100 100 98 97 97 97 97 97 97 97 97 97 98 94 35 29 32 23 19 20 14 17 34 40 61 82 90 95 98 92 87 89 95 96 95 96
Wind_Speed
48 49 51 51 48 48 48 47 45 39 40 40 39 43 43 40 40 37 34 32 32 31 32 32 32 31 30 29 29 28 29 32 35 33 30 19 16 16
47 48 49 49 49 50 51 47 47 48 47 42 40 39 41 41 40 41 35 33 33 33 32 33 32 30 29 29 29 29 31 34 32 31 26 15 15 15
43 46 47 47 47 47 47 47 47 46 47 52 42 40 39 42 42 35 38 40 37 34 33 34 32 29 28 28 29 30 32 32 31 27 22 16 15 16
37 41 44 45 47 47 48 51 50 48 44 48 44 39 42 42 43 39 39 43 40 36 34 34 33 30 28 28 30 31 31 30 27 23 21 17 15 14
32 32 34 39 44 46 48 52 51 49 47 46 49 43 39 42 45 45 40 42 40 37 36 36 33 32 29 27 29 28 28 27 22 19 19 18 14 16
38 38 37 37 40 44 46 48 51 50 46 47 47 44 44 39 43 44 38 45 41 41 35 35 32 31 27 27 27 26 25 23 20 19 19 16 14 17
39 39 38 39 38 38 44 48 46 47 46 45 45 42 44 42 40 48 40 43 40 39 37 35 33 27 25 24 25 24 22 20 17 17 18 15 19 19
43 42 38 37 37 35 36 41 46 50 46 43 44 42 47 45 37 51 39 44 34 40 38 35 30 26 22 22 21 21 21 19 19 18 16 16 20 20
42 41 40 37 38 36 36 38 42 43 48 53 46 44 48 49 37 45 40 41 37 39 30 31 23 21 20 19 18 16 19 18 17 15 17 18 20 21
38 38 35 37 36 35 35 42 40 42 44 40 44 53 49 47 46 41 37 39 36 34 25 19 19 20 18 17 15 15 19 18 16 17 19 19 20 21
34 36 36 39 40 37 37 38 43 41 42 42 40 39 44 49 47 38 35 35 35 30 24 18 17 17 16 16 17 17 17 15 17 19 17 19 19 20
44 45 42 39 38 39 36 37 41 45 41 44 39 35 45 41 35 44 39 42 33 19 19 18 17 12 6 11 9 9 11 14 17 16 16 18 18 20
46 48 49 42 41 39 39 36 39 43 44 46 42 35 45 42 36 33 24 28 25 22 14 17 13 12 11 9 9 9 13 12 14 17 18 19 17 17
45 48 49 47 44 42 40 38 34 35 40 39 42 41 39 33 28 27 22 22 19 15 14 13 11 11 13 12 10 7 10 14 16 15 14 14 16 16
43 46 47 47 43 39 38 36 31 33 36 37 40 38 33 28 24 22 22 21 18 14 11 11 11 11 10 12 14 12 13 13 15 9 12 15 16 17
44 45 42 41 38 36 33 29 27 27 31 34 34 30 30 31 27 23 24 19 15 13 12 11 10 8 10 10 14 15 13 12 12 14 16 17 17 19
39 37 41 42 40 35 33 29 28 24 25 24 25 28 31 30 27 26 21 20 14 12 10 10 7 8 9 11 16 14 13 14 13 15 18 21 21 20
32 32 40 40 38 34 29 26 23 22 20 18 19 24 29 29 28 25 18 14 12 10 10 7 6 6 10 9 9 12 11 13 16 18 19 24 26 20
28 30 37 39 37 33 31 27 23 22 20 16 17 23 29 26 24 21 18 14 12 11 7 4 4 7 10 15 11 7 16 18 20 22 21 23 26 22
28 31 37 41 37 32 28 25 22 20 18 16 17 23 24 24 23 18 15 12 11 10 6 4 4 6 9 11 17 16 12 20 20 23 23 22 23 20
32 32 37 40 37 31 27 23 21 18 14 15 17 24 25 22 19 15 13 12 10 7 3 0 3 7 10 13 18 23 19 16 17 21 23 24 26 25
32 34 38 39 35 28 24 21 18 14 13 14 23 25 22 19 16 14 13 11 9 5 3 1 4 7 10 14 18 21 23 19 16 15 14 17 22 13
33 35 39 37 34 26 22 19 14 12 12 20 25 22 20 17 15 13 12 10 7 5 4 3 7 9 11 16 19 21 22 21 22 19 12 9 12 16
Wind_Direction
267 269 265 261 257 254 256 254 252 263 263 263 258 261 263 263 261 255 253 255 253 251 252 255 263 269 274 282 286 288 293 296 296 297 295 290 286 286
273 271 268 265 262 258 257 257 253 253 261 262 259 260 262 262 261 252 251 248 250 253 253 256 259 267 277 285 288 291 295 296 295 293 288 280 276 279
277 275 272 269 266 264 261 257 256 251 252 265 262 261 254 258 258 251 247 243 247 252 255 257 260 267 277 284 288 292 295 294 293 286 278 272 271 277
288 285 281 279 274 270 267 263 262 257 255 258 264 260 259 254 254 248 255 250 246 250 256 258 266 276 278 281 285 290 289 290 286 280 277 270 268 271
302 299 293 284 280 275 269 266 258 257 259 258 261 259 257 259 254 246 249 246 248 247 253 258 267 272 276 278 284 285 288 287 279 280 277 271 265 268
305 301 297 291 281 277 274 269 265 262 255 261 257 253 250 257 255 244 250 246 244 247 249 256 262 266 268 275 282 287 285 281 278 274 272 267 264 269
308 307 303 304 299 286 277 274 271 263 259 251 253 241 244 250 253 253 249 248 247 244 246 248 256 261 267 276 281 281 276 275 269 271 268 259 260 265
306 306 306 304 305 308 293 279 276 271 268 264 242 241 243 254 265 249 250 236 234 242 240 248 252 257 264 275 278 273 275 273 277 273 262 256 263 266
311 308 307 306 305 307 311 293 287 280 273 270 263 246 245 251 262 257 253 236 253 241 235 240 244 258 266 272 270 272 270 270 269 267 271 263 264 269
314 316 314 302 303 306 307 304 293 286 283 274 274 264 257 247 260 257 263 236 240 231 231 232 244 257 264 271 269 272 266 263 257 271 277 271 270 271
323 316 316 313 313 304 300 303 297 293 282 280 271 284 270 260 258 244 238 229 221 221 219 237 244 253 265 268 270 261 259 251 261 275 270 273 272 274
326 326 319 318 313 309 303 298 290 297 290 283 276 281 269 253 244 235 236 218 202 206 217 231 244 251 254 248 238 229 258 265 271 266 269 273 274 275
324 325 325 320 315 307 302 291 278 291 290 281 274 274 267 244 239 224 211 205 203 217 212 217 243 240 241 249 259 257 269 260 263 274 277 274 274 268
324 323 324 321 316 311 306 294 286 287 277 276 261 256 240 229 209 201 198 195 200 203 222 234 242 250 252 264 271 262 271 282 283 280 272 276 279 275
323 322 324 326 325 317 311 304 290 282 273 264 251 239 223 210 197 192 189 185 192 206 220 238 248 249 257 271 280 288 294 295 295 274 289 296 293 287
325 325 330 329 326 326 325 317 308 291 263 260 241 230 212 196 193 190 185 182 192 208 221 236 238 243 260 284 288 296 300 293 285 291 290 292 298 294
323 329 334 338 334 329 332 312 299 262 248 244 236 219 202 195 180 180 184 185 199 204 215 226 228 254 277 288 291 306 305 297 306 308 305 301 297 294
323 332 340 341 338 335 326 305 277 266 258 251 233 215 198 189 179 177 180 184 190 201 207 205 233 286 297 306 301 318 314 313 308 302 300 297 296 295
332 338 341 342 338 334 330 319 295 277 273 264 241 212 194 183 188 173 174 175 185 199 195 211 268 289 300 318 329 333 318 316 309 303 301 298 296 298
332 336 340 342 339 335 333 321 303 285 276 253 220 198 182 187 185 178 169 173 184 184 183 217 265 291 312 320 317 325 316 312 316 312 312 305 302 305
332 332 342 342 339 336 335 324 304 290 268 231 197 177 183 181 181 170 165 174 172 169 170 252 310 319 331 320 313 323 335 337 322 315 315 309 305 300
329 334 342 344 339 336 336 326 303 278 256 216 184 183 176 178 169 164 170 162 155 147 126 46 338 335 333 326 328 336 336 335 329 320 311 280 271 264
330 339 344 343 340 336 337 326 299 269 234 198 187 176 174 162 160 163 154 152 147 119 91 28 4 348 337 345 343 342 339 341 342 343 348 304 282 273